Surface/Precipitation History
03/25/2017 07:11  to  3/26/2017 07:11
Change End Date:
Date/Time
(MDT)
Sf
Temp Chem Water Layer Surface Precipitation
Sfc Pvt Sub Frz Factor Pct Dpth DpthThk IcePct Cond Salin FI Type Intens Accum Rate
03/26/2017 07:10 Ice Warning 25.9F - - 32F 95 2% - - 96% 3 mhos 468 - None None - -
03/26/2017 07:09 Ice Warning 25.5F - - 32F 95 2% - - 96% 3 mhos 479 - None None - -
03/26/2017 06:59 Ice Warning 25.3F - - 32F 95 2% - - 96% 3 mhos 475 - None None - -
03/26/2017 06:55 Ice Warning 25.5F - - 32F 95 2% - - 96% 3 mhos 469 - None None - -
03/26/2017 06:49 Ice Warning 25.3F - - 32F 95 2% - - 96% 3 mhos 479 - None None - -
03/26/2017 06:40 Ice Warning 25.9F - - 32F 95 2% - - 96% 3 mhos 469 - None None - -
03/26/2017 06:39 Ice Warning 25.9F - - 32F 95 2% - - 96% 3 mhos 469 - None None - -
03/26/2017 06:29 Ice Warning 26.1F - - 32F 95 2% - - 95% 3 mhos 463 - None None - -
03/26/2017 06:25 Ice Warning 26.2F - - 32F 95 2% - - 95% 3 mhos 468 - None None - -
03/26/2017 06:19 Ice Warning 26.4F - - 32F 95 2% - - 95% 3 mhos 462 - None None - -
03/26/2017 06:10 Ice Warning 26.8F - - 32F 95 1% - - 95% 3 mhos 446 - Yes - - -
03/26/2017 06:09 Ice Warning 26.8F - - 32F 95 1% - - 95% 3 mhos 446 - None None - -
03/26/2017 05:59 Ice Warning 26.4F - - 32F 95 2% - - 95% 3 mhos 452 - None None - -
03/26/2017 05:55 Ice Warning 26.6F - - 32F 95 1% - - 95% 3 mhos 446 - None None - -
03/26/2017 05:48 Ice Warning 27.0F - - 32F 95 1% - - 95% 3 mhos 440 - None None - -
Date/Time
(MDT)
Sf
Temp Chem Water Layer Surface Precipitation
Sfc Pvt Sub Frz Factor Pct Dpth DpthThk IcePct Cond Salin FI Type Intens Accum Rate
03/26/2017 05:40 Ice Warning 27.0F - - 32F 95 1% - - 95% 3 mhos 444 - None None - -
03/26/2017 05:38 Ice Warning 27.1F - - 32F 95 1% - - 95% 3 mhos 435 - Yes - - -
03/26/2017 05:28 Ice Warning 27.1F - - 32F 95 1% - - 95% 3 mhos 441 - Yes - - -
03/26/2017 05:25 Ice Warning 27.5F - - 32F 95 1% - - 95% 3 mhos 441 - Yes - - -
03/26/2017 05:18 Ice Warning 27.9F - - 32F 95 1% - - 94% 3 mhos 436 - None None - -
03/26/2017 05:10 Ice Warning 28.0F - - 32F 95 1% - - 94% 3 mhos 437 - Yes - - -
03/26/2017 05:08 Ice Warning 28.2F - - 32F 95 1% - - 94% 3 mhos 425 - Yes - - -
03/26/2017 04:58 Ice Warning 28.2F - - 32F 95 1% - - 94% 3 mhos 414 - Yes - - -
03/26/2017 04:55 Ice Warning 28.2F - - 32F 95 1% - - 94% 3 mhos 408 - Yes - - -
03/26/2017 04:48 Ice Warning 28.2F - - 32F 95 1% - - 95% 3 mhos 387 - Yes - - -
03/26/2017 04:40 Ice Warning 28.0F - - 32F 95 1% - - 95% 3 mhos 373 - None None - -
03/26/2017 04:38 Ice Warning 28.0F - - 32F 95 1% - - 95% 3 mhos 369 - None None - -
03/26/2017 04:28 Ice Warning 28.0F - - 32F 95 1% - - 95% 2 mhos 340 - None None - -
03/26/2017 04:25 Ice Warning 28.0F - - 32F 95 1% - - 96% 2 mhos 334 - Yes - - -
03/26/2017 04:18 Ice Warning 28.0F - - 32F 95 1% - - 96% 2 mhos 323 - Yes - - -
Date/Time
(MDT)
Sf
Temp Chem Water Layer Surface Precipitation
Sfc Pvt Sub Frz Factor Pct Dpth DpthThk IcePct Cond Salin FI Type Intens Accum Rate
03/26/2017 04:10 Ice Warning 28.2F - - 32F 95 1% - - 96% 2 mhos 312 - None None - -
03/26/2017 04:08 Ice Warning 28.4F - - 32F 95 1% - - 96% 2 mhos 308 - None None - -
03/26/2017 03:58 Ice Warning 28.8F - - 32F 95 1% - - 95% 2 mhos 300 - None None - -
03/26/2017 03:55 Ice Warning 28.8F - - 32F 95 1% - - 95% 2 mhos 297 - None None - -
03/26/2017 03:48 Ice Warning 28.9F - - 32F 95 1% - - 95% 3 mhos 334 - None None - -
03/26/2017 03:40 Ice Warning 29.3F - - 32F 95 2% - - 92% 4 mhos 469 - None None - -
03/26/2017 03:38 Ice Warning 29.3F - - 32F 95 2% - - 91% 4 mhos 505 - Yes - - -
03/26/2017 03:28 Ice Warning 29.7F - - 31F 95 2% - - 88% 5 mhos 596 - None None - -
03/26/2017 03:25 Ice Warning 29.8F - - 31F 95 2% - - 87% 5 mhos 598 - Yes - - -
03/26/2017 03:18 Chemically Wet 30.4F - - 31F 95 2% - - 84% 5 mhos 591 - None None - -
03/26/2017 03:10 Chemically Wet 30.6F - - 31F 95 2% - - 82% 5 mhos 577 - None None - -
03/26/2017 03:08 Chemically Wet 30.6F - - 31F 95 2% - - 82% 5 mhos 573 - None None - -
03/26/2017 02:58 Chemically Wet 30.7F - - 32F 95 2% - - 80% 5 mhos 554 - None None - -
03/26/2017 02:55 Chemically Wet 30.7F - - 32F 95 2% - - 81% 5 mhos 549 - Yes - - -
03/26/2017 02:48 Chemically Wet 30.9F - - 32F 95 2% - - 79% 5 mhos 521 - None None - -
Date/Time
(MDT)
Sf
Temp Chem Water Layer Surface Precipitation
Sfc Pvt Sub Frz Factor Pct Dpth DpthThk IcePct Cond Salin FI Type Intens Accum Rate
03/26/2017 02:40 Chemically Wet 31.1F - - 32F 95 2% - - 77% 5 mhos 488 - Yes - - -
03/26/2017 02:37 Chemically Wet 31.3F - - 32F 95 2% - - 74% 5 mhos 475 - Yes - - -
03/26/2017 02:27 Chemically Wet 31.5F - - 32F 95 1% - - 71% 3 mhos 319 - None None - -
03/26/2017 02:25 Chemically Wet 31.5F - - 32F 95 1% - - 77% 2 mhos 255 - Yes - - -
03/26/2017 02:17 Chemically Wet 32.0F - - 32F 95 2% 0.00 in - 0% 5 mhos 532 - Yes - - -
03/26/2017 02:10 Wet 32.0F - - 32F 95 2% 0.00 in - 0% 5 mhos 512 - None None - -
03/26/2017 02:07 Wet 32.0F - - 32F 95 2% 0.00 in - 0% 5 mhos 488 - None None - -
03/26/2017 01:57 Wet 32.2F - - 32F 95 1% 0.00 in - 0% 3 mhos 320 - None None - -
03/26/2017 01:55 Wet 32.0F - - 32F 95 1% 0.00 in - 0% 3 mhos 264 - None None - -
03/26/2017 01:47 Wet 32.2F - - 32F 95 1% 0.00 in - 0% 3 mhos 311 - None None - -
03/26/2017 01:40 Wet 32.0F - - 32F 95 1% 0.00 in - 0% 3 mhos 303 - None None - -
03/26/2017 01:37 Wet 32.2F - - 32F 95 1% 0.00 in - 0% 3 mhos 302 - None None - -
03/26/2017 01:27 Wet 32.2F - - 32F 95 1% 0.00 in - 0% 3 mhos 299 - None None - -
03/26/2017 01:25 Wet 32.0F - - 32F 95 1% 0.00 in - 0% 3 mhos 296 - None None - -
03/26/2017 01:17 Wet 32.2F - - 32F 95 1% 0.00 in - 0% 3 mhos 288 - None None - -
Date/Time
(MDT)
Sf
Temp Chem Water Layer Surface Precipitation
Sfc Pvt Sub Frz Factor Pct Dpth DpthThk IcePct Cond Salin FI Type Intens Accum Rate
03/26/2017 01:10 Wet 32.0F - - 32F 95 1% 0.00 in - 0% 3 mhos 271 - None None - -
03/26/2017 01:07 Wet 32.0F - - 32F 95 1% 0.00 in - 0% 2 mhos 250 - None None - -
03/26/2017 00:57 Chemically Wet 31.8F - - 32F 95 1% 0.00 in - 0% 2 mhos 190 - None None - -
03/26/2017 00:55 Chemically Wet 31.8F - - 32F 95 1% 0.00 in - 0% 2 mhos 187 - Yes - - -
03/26/2017 00:47 Chemically Wet 31.6F - - 32F 95 1% - - 76% 2 mhos 181 - Yes - - -
03/26/2017 00:40 Chemically Wet 31.5F - - 32F 95 1% - - 84% 2 mhos 178 - Yes - - -
03/26/2017 00:37 Chemically Wet 31.5F - - 32F 95 1% - - 84% 2 mhos 174 - Yes - - -
03/26/2017 00:27 Ice Warning 31.5F - - 32F 95 1% - - 85% 2 mhos 166 - Yes - - -
03/26/2017 00:25 Ice Warning 31.5F - - 32F 95 1% - - 88% 2 mhos 166 - Yes - - -
03/26/2017 00:17 Chemically Wet 31.8F - - 32F 95 1% - - 74% 2 mhos 156 - None None - -
03/26/2017 00:10 Chemically Wet 31.8F - - 32F 85 0% - - 60% 1 mhos 141 - None None - -
03/26/2017 00:07 Wet 32.0F - - 32F 85 0% 0.00 in - 0% 1 mhos 140 - Yes - - -
03/25/2017 23:57 Wet 32.4F - - 32F 95 0% 0.00 in - 0% 1 mhos 140 - Yes - - -
03/25/2017 23:55 Wet 32.4F - - 32F 95 0% 0.00 in - 0% 1 mhos 140 - None None - -
03/25/2017 23:47 Wet 32.2F - - 32F 95 0% 0.00 in - 0% 1 mhos 61 - Yes - - -
Date/Time
(MDT)
Sf
Temp Chem Water Layer Surface Precipitation
Sfc Pvt Sub Frz Factor Pct Dpth DpthThk IcePct Cond Salin FI Type Intens Accum Rate
03/25/2017 23:40 Wet 32.5F - - 32F 40 0% 0.00 in - 0% 0 mhos 29 - Yes - - -
03/25/2017 23:37 Wet 32.7F - - 32F 45 0% 0.00 in - 0% 0 mhos 27 - None None - -
03/25/2017 23:26 Wet 32.7F - - 32F 95 0% 0.00 in - 0% 1 mhos 106 - Yes - - -
03/25/2017 23:25 Wet 32.7F - - 32F 95 0% 0.00 in - 0% 1 mhos 104 - None None - -
03/25/2017 23:16 Wet 32.9F - - 32F 95 0% 0.00 in - 0% 1 mhos 91 - Yes - - -
03/25/2017 23:10 Wet 32.7F - - 32F 30 0% 0.00 in - 0% 1 mhos 57 - None None - -
03/25/2017 23:06 Wet 33.1F - - 32F 25 0% 0.00 in - 0% 0 mhos 48 - None None - -
03/25/2017 22:56 Wet 33.4F - - 32F 25 0% 0.00 in - 0% 0 mhos 22 - None None - -
03/25/2017 22:55 Wet 33.8F - - 32F 50 0% 0.00 in - 0% 1 mhos 75 - None None - -
03/25/2017 22:46 Wet 34.2F - - 32F 70 0% 0.00 in - 0% 1 mhos 50 - None None - -
03/25/2017 22:40 Wet 34.2F - - 32F 15 0% 0.00 in - 0% 0 mhos 25 - Yes - - -
03/25/2017 22:36 Wet 34.0F - - 32F 20 0% 0.00 in - 0% 0 mhos 20 - Yes - - -
03/25/2017 22:26 Wet 33.6F - - 32F 15 0% 0.40 in - 0% 0 mhos 1 - Yes - - -
03/25/2017 22:25 Wet 33.6F - - 32F 15 0% 1.00 in - 0% 0 mhos 1 - Yes - - -
03/25/2017 22:16 Wet 35.8F - - 32F 5 0% 0.00 in - 0% 0 mhos 0 - Yes - - -
Date/Time
(MDT)
Sf
Temp Chem Water Layer Surface Precipitation
Sfc Pvt Sub Frz Factor Pct Dpth DpthThk IcePct Cond Salin FI Type Intens Accum Rate
03/25/2017 22:10 Wet 36.3F - - 32F 5 0% 0.00 in - 0% 0 mhos 0 - None None - -
03/25/2017 22:06 Wet 36.3F - - 32F 5 0% 0.00 in - 0% 0 mhos 0 - Yes - - -
03/25/2017 21:56 Wet 36.5F - - 32F 5 0% 0.00 in - 0% 0 mhos 0 - None None - -
03/25/2017 21:55 Wet 36.3F - - 32F 5 0% 0.00 in - 0% 0 mhos 0 - None None - -
03/25/2017 21:46 Wet 36.3F - - 32F 5 0% 0.00 in - 0% 0 mhos 0 - None None - -
03/25/2017 21:40 Wet 36.3F - - 32F 5 0% 0.00 in - 0% 0 mhos 0 - None None - -
03/25/2017 21:36 Wet 36.3F - - 32F 5 0% 0.00 in - 0% 0 mhos 0 - None None - -
03/25/2017 21:26 Wet 36.7F - - 32F 5 0% 0.00 in - 0% 0 mhos 0 - None None - -
03/25/2017 21:25 Wet 36.7F - - 32F 5 0% 0.00 in - 0% 0 mhos 0 - None None - -
03/25/2017 21:16 Wet 36.5F - - 32F 5 0% 0.00 in - 0% 0 mhos 0 - None None - -
03/25/2017 21:10 Wet 36.5F - - 32F 5 0% 0.00 in - 0% 0 mhos 0 - None None - -
03/25/2017 21:06 Wet 36.3F - - 32F 5 0% 0.00 in - 0% 0 mhos 0 - None None - -
03/25/2017 20:56 Wet 36.5F - - 32F 5 0% 0.00 in - 0% 0 mhos 1 - None None - -
03/25/2017 20:55 Wet 36.5F - - 32F 5 0% 0.00 in - 0% 0 mhos 1 - None None - -
03/25/2017 20:46 Wet 36.1F - - 32F 5 0% 0.00 in - 0% 0 mhos 1 - None None - -
Date/Time
(MDT)
Sf
Temp Chem Water Layer Surface Precipitation
Sfc Pvt Sub Frz Factor Pct Dpth DpthThk IcePct Cond Salin FI Type Intens Accum Rate
03/25/2017 20:40 Wet 35.8F - - 32F 5 0% 0.00 in - 0% 0 mhos 1 - None None - -
03/25/2017 20:36 Wet 35.8F - - 32F 5 0% 0.00 in - 0% 0 mhos 1 - None None - -
03/25/2017 20:26 Wet 36.0F - - 32F 5 0% 0.00 in - 0% 0 mhos 1 - None None - -
03/25/2017 20:25 Wet 36.0F - - 32F 5 0% 0.00 in - 0% 0 mhos 1 - None None - -
03/25/2017 20:15 Wet 36.3F - - 32F 5 0% 0.00 in - 0% 0 mhos 2 - None None - -
03/25/2017 20:10 Wet 36.5F - - 32F 5 0% 0.00 in - 0% 0 mhos 2 - None None - -
03/25/2017 20:05 Wet 36.7F - - 32F 5 0% 0.00 in - 0% 0 mhos 2 - None None - -
03/25/2017 19:55 Wet 37.2F - - 32F 5 0% 0.00 in - 0% 0 mhos 4 - None None - -
03/25/2017 19:55 Wet 37.2F - - 32F 5 0% 0.00 in - 0% 0 mhos 4 - None None - -
03/25/2017 19:45 Wet 37.8F - - 32F 15 0% 0.00 in - 0% 0 mhos 10 - None None - -
03/25/2017 19:40 Wet 38.5F - - 32F 15 0% 0.00 in - 0% 0 mhos 15 - None None - -
03/25/2017 19:35 Wet 38.8F - - 32F 15 0% 0.00 in - 0% 0 mhos 21 - Yes - - -
03/25/2017 19:25 Wet 39.7F - - 32F 20 0% 0.00 in - 0% 0 mhos 30 - Yes - - -
03/25/2017 19:25 Wet 39.7F - - 32F 20 0% 0.00 in - 0% 0 mhos 30 - Yes - - -
03/25/2017 19:15 Wet 40.3F - - 32F 25 0% 0.00 in - 0% 0 mhos 39 - Yes - - -
Date/Time
(MDT)
Sf
Temp Chem Water Layer Surface Precipitation
Sfc Pvt Sub Frz Factor Pct Dpth DpthThk IcePct Cond Salin FI Type Intens Accum Rate
03/25/2017 19:10 Wet 40.5F - - 32F 15 0% 0.00 in - 0% 1 mhos 45 - Yes - - -
03/25/2017 19:05 Wet 40.5F - - 32F 15 0% 0.00 in - 0% 1 mhos 47 - Yes - - -
03/25/2017 18:55 Wet 41.0F - - 32F 15 0% 0.00 in - 0% 1 mhos 53 - Yes - - -
03/25/2017 18:55 Wet 41.0F - - 32F 15 0% 0.00 in - 0% 1 mhos 53 - Yes - - -
03/25/2017 18:45 Wet 42.4F - - 32F 15 0% 0.00 in - 0% 1 mhos 58 - Yes - - -
03/25/2017 18:40 Wet 43.2F - - 32F 15 0% 0.00 in - 0% 1 mhos 64 - Yes - - -
03/25/2017 18:35 Wet 44.4F - - 32F 15 0% 0.00 in - 0% 1 mhos 62 - Yes - - -
03/25/2017 18:25 Wet 44.4F - - 32F 35 0% 0.00 in - 0% 0 mhos 38 - Yes - - -
03/25/2017 18:25 Wet 44.4F - - 32F 35 0% 0.00 in - 0% 0 mhos 38 - Yes - - -
03/25/2017 18:15 Wet 45.5F - - 32F 20 0% 0.00 in - 0% 0 mhos 18 - Yes - - -
03/25/2017 18:10 Wet 47.1F - - 32F 95 0% 0.00 in - 0% 1 mhos 58 - Yes - - -
03/25/2017 18:05 Wet 48.2F - - 32F 95 0% 0.00 in - 0% 1 mhos 64 - Yes - - -
03/25/2017 17:55 Wet 42.6F - - 32F 10 0% 0.00 in - 0% 0 mhos 12 - Yes - - -
03/25/2017 17:55 Wet 42.6F - - 32F 10 0% 0.00 in - 0% 0 mhos 12 - Yes - - -
03/25/2017 17:45 Dry 52.2F - - - - - - - - 0 mhos 0 - None None - -
Date/Time
(MDT)
Sf
Temp Chem Water Layer Surface Precipitation
Sfc Pvt Sub Frz Factor Pct Dpth DpthThk IcePct Cond Salin FI Type Intens Accum Rate
03/25/2017 17:40 Dry 52.5F - - - - - - - - 0 mhos 0 - None None - -
03/25/2017 17:35 Dry 53.1F - - - - - - - - 0 mhos 0 - None None - -
03/25/2017 17:25 Dry 55.4F - - - - - - - - 0 mhos 0 - Yes - - -
03/25/2017 17:25 Dry 55.4F - - - - - - - - 0 mhos 0 - Yes - - -
03/25/2017 17:15 Dry 55.9F - - - - - - - - 0 mhos 0 - None None - -
03/25/2017 17:10 Dry 56.8F - - - - - - - - 0 mhos 0 - None None - -
03/25/2017 17:04 Dry 58.3F - - - - - - - - 0 mhos 0 - Yes - - -
03/25/2017 16:55 Dry 57.6F - - - - - - - - 0 mhos 0 - None None - -
03/25/2017 16:54 Dry 57.6F - - - - - - - - 0 mhos 0 - None None - -
03/25/2017 16:44 Dry 58.3F - - - - - - - - 0 mhos 0 - None None - -
03/25/2017 16:40 Dry 58.8F - - - - - - - - 0 mhos 0 - None None - -
03/25/2017 16:34 Dry 59.0F - - - - - - - - 0 mhos 0 - None None - -
03/25/2017 16:25 Dry 59.9F - - - - - - - - 0 mhos 0 - None None - -
03/25/2017 16:24 Dry 59.9F - - - - - - - - 0 mhos 0 - None None - -
03/25/2017 16:14 Dry 61.2F - - - - - - - - 0 mhos 0 - None None - -
Date/Time
(MDT)
Sf
Temp Chem Water Layer Surface Precipitation
Sfc Pvt Sub Frz Factor Pct Dpth DpthThk IcePct Cond Salin FI Type Intens Accum Rate
03/25/2017 16:10 Dry 61.3F - - - - - - - - 0 mhos 0 - None None - -
03/25/2017 16:04 Dry 62.1F - - - - - - - - 0 mhos 0 - None None - -
03/25/2017 15:55 Dry 62.4F - - - - - - - - 0 mhos 0 - None None - -
03/25/2017 15:54 Dry 62.1F - - - - - - - - 0 mhos 0 - None None - -
03/25/2017 15:44 Dry 63.3F - - - - - - - - 0 mhos 0 - None None - -
03/25/2017 15:40 Dry 63.9F - - - - - - - - 0 mhos 0 - None None - -
03/25/2017 15:34 Dry 64.0F - - - - - - - - 0 mhos 0 - None None - -
03/25/2017 15:25 Dry 66.4F - - - - - - - - 0 mhos 0 - None None - -
03/25/2017 15:24 Dry 66.6F - - - - - - - - 0 mhos 0 - None None - -
03/25/2017 15:14 Dry 74.3F - - - - - - - - 0 mhos 0 - None None - -
03/25/2017 15:10 Dry 72.7F - - - - - - - - 0 mhos 0 - None None - -
03/25/2017 15:04 Dry 69.6F - - - - - - - - 0 mhos 0 - None None - -
03/25/2017 14:55 Dry 69.4F - - - - - - - - 0 mhos 0 - None None - -
03/25/2017 14:54 Dry 69.4F - - - - - - - - 0 mhos 0 - None None - -
03/25/2017 14:44 Dry 63.5F - - - - - - - - 0 mhos 0 - None None - -
Date/Time
(MDT)
Sf
Temp Chem Water Layer Surface Precipitation
Sfc Pvt Sub Frz Factor Pct Dpth DpthThk IcePct Cond Salin FI Type Intens Accum Rate
03/25/2017 14:40 Dry 65.7F - - - - - - - - 0 mhos 0 - None None - -
03/25/2017 14:34 Dry 69.8F - - - - - - - - 0 mhos 0 - None None - -
03/25/2017 14:25 Dry 72.7F - - - - - - - - 0 mhos 0 - None None - -
03/25/2017 14:24 Dry 71.2F - - - - - - - - 0 mhos 0 - None None - -
03/25/2017 14:14 Dry 70.9F - - - - - - - - 0 mhos 0 - None None - -
03/25/2017 14:10 Dry 69.1F - - - - - - - - 0 mhos 0 - None None - -
03/25/2017 14:04 Dry 66.4F - - - - - - - - 0 mhos 0 - None None - -
03/25/2017 13:55 Dry 64.2F - - - - - - - - 0 mhos 0 - None None - -
03/25/2017 13:53 Dry 64.2F - - - - - - - - 0 mhos 0 - None None - -
03/25/2017 13:43 Dry 61.7F - - - - - - - - 0 mhos 0 - None None - -
03/25/2017 13:40 Dry 62.1F - - - - - - - - 0 mhos 0 - None None - -
03/25/2017 13:33 Dry 61.3F - - - - - - - - 0 mhos 0 - None None - -
03/25/2017 13:25 Dry 60.3F - - - - - - - - 0 mhos 0 - None None - -
03/25/2017 13:23 Dry 60.3F - - - - - - - - 0 mhos 0 - None None - -
03/25/2017 13:13 Dry 60.1F - - - - - - - - 0 mhos 0 - None None - -
Date/Time
(MDT)
Sf
Temp Chem Water Layer Surface Precipitation
Sfc Pvt Sub Frz Factor Pct Dpth DpthThk IcePct Cond Salin FI Type Intens Accum Rate
03/25/2017 13:10 Dry 59.9F - - - - - - - - 0 mhos 0 - None None - -
03/25/2017 13:03 Dry 59.2F - - - - - - - - 0 mhos 0 - None None - -
03/25/2017 12:55 Dry 59.2F - - - - - - - - 0 mhos 0 - None None - -
03/25/2017 12:53 Dry 59.0F - - - - - - - - 0 mhos 0 - None None - -
03/25/2017 12:43 Dry 58.5F - - - - - - - - 0 mhos 0 - None None - -
03/25/2017 12:40 Dry 58.1F - - - - - - - - 0 mhos 0 - None None - -
03/25/2017 12:33 Dry 56.8F - - - - - - - - 0 mhos 0 - None None - -
03/25/2017 12:25 Dry 55.9F - - - - - - - - 0 mhos 0 - None None - -
03/25/2017 12:23 Dry 55.8F - - - - - - - - 0 mhos 0 - None None - -
03/25/2017 12:13 Dry 55.0F - - - - - - - - 0 mhos 0 - None None - -
03/25/2017 12:10 Dry 55.0F - - - - - - - - 0 mhos 0 - None None - -
03/25/2017 12:03 Dry 54.1F - - - - - - - - 0 mhos 0 - Yes - - -
03/25/2017 11:55 Dry 52.9F - - - - - - - - 0 mhos 0 - Yes - - -
03/25/2017 11:53 Dry 52.9F - - - - - - - - 0 mhos 0 - None None - -
03/25/2017 11:43 Dry 50.7F - - - - - - - - 0 mhos 0 - Yes - - -
Date/Time
(MDT)
Sf
Temp Chem Water Layer Surface Precipitation
Sfc Pvt Sub Frz Factor Pct Dpth DpthThk IcePct Cond Salin FI Type Intens Accum Rate
03/25/2017 11:40 Dry 50.2F - - - - - - - - 0 mhos 0 - Yes - - -
03/25/2017 11:33 Dry 49.6F - - - - - - - - 0 mhos 0 - Yes - - -
03/25/2017 11:25 Dry 48.7F - - - - - - - - 0 mhos 0 - Yes - - -
03/25/2017 11:23 Dry 48.4F - - - - - - - - 0 mhos 0 - Yes - - -
03/25/2017 11:13 Dry 47.3F - - - - - - - - 0 mhos 0 - Yes - - -
03/25/2017 11:10 Dry 46.8F - - - - - - - - 0 mhos 0 - Yes - - -
03/25/2017 11:03 Dry 46.0F - - - - - - - - 0 mhos 0 - Yes - - -
03/25/2017 10:55 Dry 45.3F - - - - - - - - 0 mhos 0 - Yes - - -
03/25/2017 10:53 Dry 45.3F - - - - - - - - 0 mhos 0 - Yes - - -
03/25/2017 10:42 Dry 44.6F - - - - - - - - 0 mhos 0 - Yes - - -
03/25/2017 10:40 Dry 44.4F - - - - - - - - 0 mhos 0 - Yes - - -
03/25/2017 10:32 Dry 43.9F - - - - - - - - 0 mhos 0 - Yes - - -
03/25/2017 10:25 Dry 43.9F - - - - - - - - 0 mhos 0 - Yes - - -
03/25/2017 10:22 Dry 43.7F - - - - - - - - 0 mhos 0 - Yes - - -
03/25/2017 10:12 Dry 42.8F - - - - - - - - 0 mhos 0 - Yes - - -
Date/Time
(MDT)
Sf
Temp Chem Water Layer Surface Precipitation
Sfc Pvt Sub Frz Factor Pct Dpth DpthThk IcePct Cond Salin FI Type Intens Accum Rate
03/25/2017 10:10 Dry 42.6F - - - - - - - - 0 mhos 0 - Yes - - -
03/25/2017 10:02 Wet 41.0F - - 32F 5 0% 0.00 in - 0% 0 mhos 1 - Yes - - -
03/25/2017 09:55 Wet 39.4F - - 32F 5 0% 0.10 in - 0% 0 mhos 1 - Yes - - -
03/25/2017 09:52 Wet 39.6F - - 32F 5 0% 0.10 in - 0% 0 mhos 1 - Yes - - -
03/25/2017 09:42 Wet 39.4F - - 32F 5 0% 0.00 in - 0% 0 mhos 3 - Yes - - -
03/25/2017 09:40 Wet 39.2F - - 32F 5 0% 0.00 in - 0% 0 mhos 5 - Yes - - -
03/25/2017 09:32 Wet 38.8F - - 32F 15 0% 0.00 in - 0% 0 mhos 16 - Yes - - -
03/25/2017 09:25 Wet 38.3F - - 32F 15 0% 0.00 in - 0% 0 mhos 29 - Yes - - -
03/25/2017 09:22 Wet 38.1F - - 32F 15 0% 0.00 in - 0% 0 mhos 37 - Yes - - -
03/25/2017 09:12 Wet 37.6F - - 32F 20 0% 0.00 in - 0% 1 mhos 57 - Yes - - -
03/25/2017 09:10 Wet 37.2F - - 32F 20 0% 0.00 in - 0% 1 mhos 59 - Yes - - -
03/25/2017 09:02 Wet 36.9F - - 32F 20 0% 0.00 in - 0% 1 mhos 71 - Yes - - -
03/25/2017 08:55 Wet 36.3F - - 32F 20 0% 0.00 in - 0% 1 mhos 74 - None None - -
03/25/2017 08:52 Wet 36.1F - - 32F 25 0% 0.00 in - 0% 1 mhos 79 - None None - -
03/25/2017 08:42 Wet 35.8F - - 32F 15 0% 0.00 in - 0% 1 mhos 82 - None None - -
Date/Time
(MDT)
Sf
Temp Chem Water Layer Surface Precipitation
Sfc Pvt Sub Frz Factor Pct Dpth DpthThk IcePct Cond Salin FI Type Intens Accum Rate
03/25/2017 08:40 Wet 35.6F - - 32F 15 0% 0.00 in - 0% 1 mhos 84 - None None - -
03/25/2017 08:32 Wet 35.2F - - 32F 20 0% 0.00 in - 0% 1 mhos 86 - None None - -
03/25/2017 08:25 Wet 35.2F - - 32F 20 0% 0.00 in - 0% 1 mhos 89 - None None - -
03/25/2017 08:22 Wet 35.1F - - 32F 20 0% 0.00 in - 0% 1 mhos 90 - None None - -
03/25/2017 08:12 Wet 35.1F - - 32F 20 0% 0.00 in - 0% 1 mhos 92 - None None - -
03/25/2017 08:10 Wet 35.1F - - 32F 20 0% 0.00 in - 0% 1 mhos 89 - None None - -
03/25/2017 08:02 Wet 35.1F - - 32F 25 0% 0.00 in - 0% 1 mhos 93 - None None - -
03/25/2017 07:55 Wet 35.1F - - 32F 15 0% 0.00 in - 0% 1 mhos 91 - None None - -
03/25/2017 07:52 Wet 35.1F - - 32F 20 0% 0.00 in - 0% 1 mhos 90 - None None - -
03/25/2017 07:42 Wet 34.5F - - 32F 25 0% 0.00 in - 0% 1 mhos 93 - None None - -
03/25/2017 07:40 Wet 34.7F - - 32F 20 0% 0.00 in - 0% 1 mhos 91 - None None - -
03/25/2017 07:32 Wet 34.7F - - 32F 20 0% 0.00 in - 0% 1 mhos 89 - None None - -
03/25/2017 07:25 Wet 34.7F - - 32F 25 0% 0.00 in - 0% 1 mhos 106 - None None - -
03/25/2017 07:21 Wet 34.5F - - 32F 20 0% 0.00 in - 0% 1 mhos 113 - None None - -
03/25/2017 07:11 Wet 34.3F - - 32F 30 0% 0.00 in - 0% 1 mhos 107 - None None - -
Change End Date:

Copyright © 1998-2015 Vaisala, Inc.
All Rights Reserved
Send comments about the data to:
SCAN Web ® is a registered trademark of Vaisala, Inc.
SCAN Web Version 6.0